Weather History for Rayong, Thailand

Change the Weather History Date:

Monday, December 17, 2012

  Actual Average Record
Temperature  
Mean Temperature 84 °F -  
Max Temperature 93 °F 87 °F 95 °F (2000)
Min Temperature 75 °F 71 °F 66 °F (2013)
Cooling Degree Days 19    
Growing Degree Days 34 (Base 50)    
Moisture  
Dew Point 72 °F    
Average Humidity 69    
Maximum Humidity 89    
Minimum Humidity 41    
Precipitation  
Precipitation 0.00 in - - ()
Sea Level Pressure  
Sea Level Pressure 29.82 in    
Wind  
Wind Speed 3 mph ()    
Max Wind Speed 9 mph    
Max Gust Speed -    
Visibility 2.8 miles    
Events      
Averages and records for this station are not official NWS values.
T = Trace of Precipitation, MM = Missing Value Source: Averaged Metar Reports

Daily Weather History Graph

Daily Weather History Graph

Search for Another Location

Airport:

Trip Planner

Search our weather history database for the weather conditions in past years. The results will help you decide how hot, cold, wet, or windy it might be!

Date:

Astronomy

Dec. 17, 2012 Rise Set
Actual Time 6:30 AM ICT 5:53 PM ICT
Civil Twilight 6:07 AM ICT 6:16 PM ICT
Nautical Twilight 5:41 AM ICT 6:43 PM ICT
Astronomical Twilight 5:14 AM ICT 7:09 PM ICT
Moon 9:54 AM ICT (12/17) 10:00 PM ICT (12/17)
Length of Visible Light 12h 09m
Length of Day
11h 23m
Waxing Crescent, 20% of the Moon is Illuminated
Dec 17
Waxing Crescent
Dec 20
First Quarter
Dec 28
Full
Jan 5
Last Quarter
Jan 12
New

Hourly Weather History & Observations

Time (ICT) Temp. Heat Index Dew Point Humidity Pressure Visibility Wind Dir Wind Speed Gust Speed Precip Events Conditions
12:00 AM 80.6 °F 86.2 °F 75.2 °F 84% 29.86 in 1.9 mi NNE 3.5 mph - N/A   Mostly Cloudy
12:30 AM 78.8 °F - 75.2 °F 89% 29.86 in 1.9 mi NNE 3.5 mph - N/A   Mostly Cloudy
1:00 AM 78.8 °F - 75.2 °F 89% 29.86 in 1.2 mi NNE 4.6 mph - N/A   Mostly Cloudy
1:30 AM 78.8 °F - 73.4 °F 83% 29.86 in 1.2 mi NE 4.6 mph - N/A   Mostly Cloudy
2:00 AM 78.8 °F - 73.4 °F 83% 29.83 in 1.2 mi ENE 2.3 mph - N/A   Mostly Cloudy
2:30 AM 78.8 °F - 73.4 °F 83% 29.83 in 1.2 mi NE 4.6 mph - N/A   Mostly Cloudy
3:00 AM 78.8 °F - 73.4 °F 83% 29.83 in 1.2 mi Calm Calm - N/A   Mostly Cloudy
3:30 AM 77.0 °F - 71.6 °F 83% 29.83 in 1.2 mi Calm Calm - N/A   Mostly Cloudy
4:00 AM 77.0 °F - 71.6 °F 83% 29.83 in 1.2 mi Calm Calm - N/A   Scattered Clouds
4:30 AM 77.0 °F - 71.6 °F 83% 29.80 in 1.2 mi North 2.3 mph - N/A   Scattered Clouds
5:00 AM 77.0 °F - 71.6 °F 83% 29.80 in 1.2 mi North 2.3 mph - N/A   Scattered Clouds
5:30 AM 77.0 °F - 71.6 °F 83% 29.80 in 1.2 mi North 3.5 mph - N/A   Scattered Clouds
6:00 AM 75.2 °F - 69.8 °F 83% 29.80 in 1.2 mi NNW 2.3 mph - N/A   Scattered Clouds
6:30 AM 77.0 °F - 69.8 °F 78% 29.83 in 1.2 mi North 3.5 mph - N/A   Mostly Cloudy
7:00 AM 75.2 °F - 69.8 °F 83% 29.83 in 1.2 mi North 4.6 mph - N/A   Mostly Cloudy
7:30 AM 77.0 °F - 69.8 °F 78% 29.83 in 1.2 mi ENE 3.5 mph - N/A   Mostly Cloudy
8:00 AM 78.8 °F - 69.8 °F 74% 29.86 in 1.2 mi NNE 4.6 mph - N/A   Mostly Cloudy
8:30 AM 82.4 °F 87.2 °F 71.6 °F 70% 29.86 in 1.9 mi NE 3.5 mph - N/A   Mostly Cloudy
9:00 AM 87.8 °F 95.6 °F 73.4 °F 62% 29.86 in 2.5 mi NNE 2.3 mph - N/A   Haze
9:30 AM 89.6 °F 96.2 °F 71.6 °F 55% 29.86 in 2.5 mi NNE 3.5 mph - N/A   Haze
10:00 AM 91.4 °F 95.4 °F 68.0 °F 46% 29.86 in 3.1 mi Calm Calm - N/A   Haze
10:30 AM 93.2 °F 97.7 °F 68.0 °F 44% 29.86 in 3.7 mi Calm Calm - N/A   Mostly Cloudy
11:00 AM 93.2 °F 96.2 °F 66.2 °F 41% 29.86 in 3.7 mi South 3.5 mph - N/A   Mostly Cloudy
11:30 AM 93.2 °F 97.7 °F 68.0 °F 44% 29.86 in 3.7 mi SSE 6.9 mph - N/A   Mostly Cloudy
12:00 PM 91.4 °F 96.8 °F 69.8 °F 49% 29.83 in 3.7 mi SSW 5.8 mph - N/A   Mostly Cloudy
12:30 PM 93.2 °F 100.5 °F 71.6 °F 49% 29.83 in 4.3 mi SW 9.2 mph - N/A   Mostly Cloudy
1:00 PM 91.4 °F 96.8 °F 69.8 °F 49% 29.80 in 4.3 mi SW 9.2 mph - N/A   Mostly Cloudy
1:30 PM 93.2 °F 100.5 °F 71.6 °F 49% 29.80 in 4.3 mi SSW 6.9 mph - N/A   Mostly Cloudy
2:00 PM 93.2 °F 100.5 °F 71.6 °F 49% 29.77 in 4.3 mi SSW 3.5 mph - N/A   Mostly Cloudy
2:30 PM 91.4 °F 96.8 °F 69.8 °F 49% 29.77 in 4.3 mi SSW 6.9 mph - N/A   Mostly Cloudy
3:00 PM 91.4 °F 98.4 °F 71.6 °F 52% 29.77 in 4.3 mi SW 4.6 mph - N/A   Mostly Cloudy
3:30 PM 91.4 °F 98.4 °F 71.6 °F 52% 29.77 in 4.3 mi WSW 4.6 mph - N/A   Mostly Cloudy
4:00 PM 91.4 °F 96.8 °F 69.8 °F 49% 29.74 in 5.0 mi West 4.6 mph - N/A   Mostly Cloudy
4:30 PM 91.4 °F 95.4 °F 68.0 °F 46% 29.74 in 5.0 mi SSW 4.6 mph - N/A   Mostly Cloudy
5:00 PM 89.6 °F 96.2 °F 71.6 °F 55% 29.77 in 5.0 mi West 4.6 mph - N/A   Mostly Cloudy
5:30 PM 87.8 °F 93.8 °F 71.6 °F 58% 29.77 in 5.0 mi West 4.6 mph - N/A   Mostly Cloudy
6:00 PM 86.0 °F 91.8 °F 71.6 °F 62% 29.77 in 4.3 mi West 3.5 mph - N/A   Scattered Clouds
6:30 PM 84.2 °F 90.9 °F 73.4 °F 70% 29.77 in 4.3 mi WNW 3.5 mph - N/A   Unknown
7:00 PM 82.4 °F 88.2 °F 73.4 °F 74% 29.80 in 3.7 mi WNW 2.3 mph - N/A   Unknown
7:30 PM 82.4 °F 88.2 °F 73.4 °F 74% 29.80 in 3.1 mi ENE 2.3 mph - N/A   Unknown
8:00 PM 82.4 °F 87.2 °F 71.6 °F 70% 29.83 in 3.1 mi Calm Calm - N/A   Mist
8:30 PM 82.4 °F 88.2 °F 73.4 °F 74% 29.83 in 3.1 mi Calm Calm - N/A   Unknown
9:00 PM 80.6 °F 85.4 °F 73.4 °F 79% 29.83 in 3.1 mi Calm Calm - N/A   Mist
9:30 PM 78.8 °F - 73.4 °F 83% 29.83 in 2.5 mi NNE 2.3 mph - N/A   Mist
10:00 PM 78.8 °F - 73.4 °F 83% 29.86 in 2.5 mi Calm Calm - N/A   Mist
10:30 PM 78.8 °F - 73.4 °F 83% 29.86 in 2.5 mi Calm Calm - N/A   Mist
11:00 PM 78.8 °F - 73.4 °F 83% 29.86 in 1.9 mi NE 2.3 mph - N/A   Mist
11:30 PM 77.0 °F - 73.4 °F 89% 29.83 in 1.9 mi NNE 2.3 mph - N/A   Mist